Wind_Speed
28 29 30 30 30 31 32 32 34 33 33 32 32 33 34 34 34 34 34 35 36 38 39 40 41 43 44 45 45 47 47 48 48 49 49 50 50 51 52 53 53 54 55 56
30 29 31 32 31 32 33 33 34 34 33 32 32 34 34 34 34 35 36 37 37 39 40 41 41 42 43 44 45 46 47 48 48 49 50 50 51 51 52 53 54 55 56 57
31 31 33 33 32 32 33 33 34 34 33 32 32 32 33 34 35 35 36 37 38 39 40 41 41 42 43 44 45 45 46 47 48 49 50 50 51 51 52 54 55 55 56 57
32 32 34 33 31 32 32 33 34 34 33 33 33 33 34 34 35 36 37 38 39 40 41 42 42 42 43 43 44 45 46 47 48 49 50 50 51 52 53 53 55 55 56 56
32 34 35 33 32 33 34 33 33 34 33 34 34 35 35 35 36 37 38 39 40 41 42 42 42 43 43 44 44 45 46 46 47 48 49 50 50 52 53 54 55 56 56 56
33 34 35 34 33 34 36 36 35 35 35 36 36 36 36 36 37 38 39 40 40 41 42 42 43 43 44 44 45 45 46 46 47 47 48 49 51 52 53 53 54 55 55 56
34 35 36 36 36 37 38 38 37 37 37 37 37 38 38 38 38 39 40 40 41 41 42 42 43 43 44 44 45 46 46 46 47 47 48 49 50 51 52 52 53 53 54 54
35 37 37 36 37 38 38 38 38 38 38 38 38 38 39 39 39 40 41 41 41 42 42 42 43 43 44 44 45 46 46 46 47 48 48 49 50 51 52 52 52 53 53 53
37 37 37 38 38 39 39 38 38 38 38 39 39 39 39 39 40 40 41 41 40 41 41 41 42 43 44 44 45 45 46 46 47 48 48 49 50 50 51 52 52 52 52 52
36 37 37 39 39 39 38 39 39 39 38 38 39 39 39 39 40 40 40 41 41 40 41 41 42 43 43 44 45 46 46 46 47 47 48 49 50 50 50 50 50 50 50 51
37 37 38 38 38 39 39 39 39 39 39 40 40 40 40 40 41 41 41 41 41 41 41 41 42 43 44 45 45 46 46 47 48 48 49 49 49 49 49 49 49 49 49 49
37 38 38 38 38 38 38 38 39 39 40 40 41 41 41 41 41 42 42 42 42 42 42 42 43 44 44 45 45 46 46 47 48 48 48 49 49 48 49 49 49 49 49 49
37 36 37 37 37 38 38 38 38 39 40 40 40 41 41 41 42 42 42 42 42 43 43 43 43 44 45 45 45 45 46 47 47 47 47 48 48 47 48 48 48 48 49 49
35 36 36 36 36 37 37 37 37 38 38 39 40 40 41 42 41 42 42 43 43 43 44 44 45 46 46 45 46 46 46 47 47 47 47 47 47 47 47 47 47 47 47 48
35 35 36 36 36 37 37 37 37 38 38 39 40 41 41 41 41 42 42 43 43 44 44 45 45 46 46 46 47 47 47 47 47 47 47 47 47 47 47 46 46 46 46 47
35 35 35 36 36 37 37 37 38 39 39 40 40 40 41 41 41 42 42 42 43 43 44 45 45 46 46 47 47 47 47 47 47 46 46 46 46 46 46 46 46 46 46 46
34 34 35 35 36 37 38 38 38 39 40 40 40 41 41 42 42 42 42 43 43 43 44 45 46 46 47 47 47 47 47 47 47 46 46 45 45 45 45 45 45 45 45 45
35 35 36 37 37 38 39 39 39 40 41 41 41 41 41 41 42 42 42 42 43 43 44 45 45 46 46 46 46 47 46 46 46 46 45 45 45 44 44 44 44 43 43 43
36 37 37 37 38 39 39 40 40 41 41 41 41 40 40 41 41 41 42 42 43 43 44 44 45 45 45 45 45 45 44 45 45 44 44 44 43 43 43 43 42 42 42 42
36 37 37 38 38 39 39 40 40 40 40 40 40 40 40 41 41 41 42 42 43 43 44 44 44 44 44 45 44 44 43 43 42 42 42 42 42 42 42 41 41 41 41 40
36 36 37 37 37 38 38 39 39 39 39 40 40 40 41 41 41 42 43 43 43 43 43 43 43 43 43 43 42 42 42 42 41 40 40 40 40 40 39 39 39 39 39 39
36 36 36 36 37 37 37 38 38 38 39 39 40 40 40 40 41 41 41 42 42 42 42 42 42 42 42 41 41 41 41 40 40 39 39 39 38 38 37 37 37 37 37 37
35 36 36 37 37 37 38 38 39 39 39 40 40 40 40 40 40 40 41 41 41 41 40 40 40 40 40 40 40 39 39 39 39 38 38 38 37 36 35 35 35 36 36 36
36 36 37 37 38 38 38 39 39 40 40 40 40 40 40 40 40 41 40 40 40 40 39 39 39 38 38 38 38 37 37 37 37 37 36 36 35 35 34 34 34 34 34 35
38 38 38 38 38 39 39 40 40 40 40 40 40 40 40 40 40 40 40 39 39 39 38 38 38 37 37 37 36 36 35 35 35 34 35 34 34 34 34 33 33 33 33 33
39 39 39 39 40 40 41 41 41 41 40 39 39 40 40 39 39 39 39 38 38 38 37 37 37 36 36 35 35 34 34 33 32 32 32 32 32 32 32 32 32 32 33 33
39 40 40 41 41 41 41 41 40 40 40 39 39 39 39 38 38 37 37 37 37 36 36 35 35 35 34 33 33 32 31 30 30 30 30 29 29 29 30 30 30 31 31 31
Wind_Direction
285 287 288 288 287 287 286 285 284 287 288 288 285 283 281 280 279 277 276 276 276 276 274 273 272 271 271 271 270 269 268 268 268 267 267 267 267 266 265 264 265 265 266 266
285 287 288 288 287 287 287 288 287 287 288 289 285 282 281 280 278 277 276 276 277 278 276 275 274 273 272 272 272 271 270 268 268 268 267 267 267 267 266 266 266 267 266 266
285 287 287 288 290 290 289 289 289 289 290 288 285 284 282 280 279 279 278 278 278 279 278 277 276 275 274 274 274 272 271 270 270 269 269 268 268 268 268 268 267 267 267 267
288 287 288 292 292 291 291 290 291 291 289 287 285 284 282 281 280 280 280 280 281 280 279 278 277 277 277 276 276 275 274 273 272 272 271 270 269 269 269 269 269 268 268 268
288 289 290 292 293 293 293 291 291 290 289 288 286 284 282 281 282 282 282 282 282 282 281 279 278 277 277 277 277 277 276 275 274 273 272 271 270 270 270 270 270 269 269 268
289 290 291 294 295 294 293 291 291 291 290 289 288 286 284 283 282 281 282 282 282 282 282 280 279 279 279 279 278 278 278 277 275 274 273 272 272 272 272 271 271 271 270 269
289 290 292 295 296 294 293 294 293 291 291 290 288 287 286 284 283 282 282 282 283 283 283 282 281 280 280 280 279 279 279 278 277 276 275 275 274 273 273 272 272 271 271 270
289 290 293 295 295 293 293 292 291 291 290 289 288 288 287 286 285 285 284 284 284 284 284 283 282 281 280 280 280 280 279 278 277 277 277 276 276 275 274 274 273 271 270 270
289 291 293 293 292 292 291 291 291 290 289 289 288 287 287 286 285 285 286 286 286 285 285 283 282 281 281 281 281 281 280 279 278 278 277 277 277 276 276 275 274 272 271 270
291 291 291 291 292 291 290 291 290 290 290 290 289 288 286 286 286 286 286 286 286 285 285 284 283 282 282 282 282 281 280 280 279 278 278 278 278 277 277 275 274 273 271 270
291 291 291 291 291 290 290 291 291 291 291 291 289 289 288 287 288 287 287 287 287 286 285 284 283 283 283 283 283 282 280 280 280 279 279 279 278 277 276 275 274 273 272 271
292 292 292 291 291 292 291 292 292 291 291 290 290 290 289 288 288 288 288 288 288 287 285 284 283 284 284 284 283 283 281 280 280 280 280 279 279 277 276 276 275 274 273 272
293 293 292 292 293 293 293 293 293 292 292 291 291 290 290 289 289 288 287 287 287 287 285 284 284 284 284 284 284 284 283 282 281 281 281 280 279 278 277 276 275 273 272 272
293 294 293 294 294 295 294 294 294 294 294 294 293 292 291 290 290 289 288 287 286 286 286 285 285 285 285 285 285 285 285 283 282 281 281 280 280 279 278 277 275 273 272 272
294 294 294 294 294 294 294 294 295 296 296 296 295 293 292 292 291 291 291 290 288 287 286 286 286 286 286 285 285 285 286 284 283 282 282 281 280 280 279 277 276 274 272 271
295 295 295 294 294 294 295 296 296 296 297 296 295 294 294 294 293 293 292 292 291 289 288 287 287 287 287 287 287 286 285 285 284 283 282 282 281 279 278 277 276 275 273 272
296 296 295 295 295 295 295 296 296 296 297 296 296 295 295 295 294 294 293 293 292 291 290 289 288 288 288 288 288 287 286 285 284 283 283 282 281 279 278 277 276 275 274 273
297 297 297 297 297 297 297 296 297 297 297 297 296 296 296 296 296 295 294 294 293 293 292 291 290 290 289 289 288 287 286 285 285 284 283 282 281 279 278 278 277 275 274 273
299 299 299 299 298 298 298 298 298 298 298 297 297 297 297 297 297 297 296 296 295 294 294 293 292 291 291 290 289 288 288 287 286 285 284 282 281 280 278 277 276 275 275 274
301 301 301 300 300 300 300 300 300 299 299 298 298 298 298 298 299 298 298 297 297 296 295 294 293 292 291 290 289 289 289 288 287 285 284 283 281 280 279 277 276 275 274 274
302 302 302 301 301 301 301 301 301 300 300 300 300 300 300 300 300 300 299 299 298 297 296 295 295 294 293 292 291 290 289 288 287 286 285 284 282 280 278 277 276 274 273 273
303 302 302 302 302 302 303 303 303 303 302 302 302 302 302 302 302 302 302 301 300 299 298 297 296 295 294 294 293 291 290 288 288 287 286 284 283 281 278 276 275 274 273 273
304 304 303 303 303 304 304 304 304 304 304 303 303 303 303 304 303 303 303 303 302 301 300 299 298 297 296 295 294 292 290 288 287 287 285 283 282 281 279 277 275 274 273 273
304 304 304 304 304 305 305 305 305 305 305 305 304 304 304 305 304 305 304 304 303 302 302 301 300 299 298 297 296 293 291 289 288 286 284 283 280 278 277 276 276 275 274 274
303 304 304 304 304 304 305 306 306 306 306 306 306 306 306 306 306 305 305 304 303 303 303 302 301 301 300 299 297 295 293 291 290 288 285 283 281 278 276 275 275 275 275 275
303 303 303 303 303 304 305 305 306 306 306 306 307 307 307 307 307 306 306 305 305 304 304 303 303 302 301 301 299 297 295 293 291 290 288 285 282 279 278 276 276 276 276 275
303 303 303 303 304 304 304 305 305 306 306 307 307 308 308 308 308 308 307 307 306 305 305 305 304 304 304 303 301 300 298 296 294 292 291 288 285 282 280 278 278 278 278 277
Height
5597 5595 5592 5590 5588 5585 5582 5580 5578 5578 5576 5576 5573 5570 5568 5566 5564 5563 5562 5561 5559 5558 5557 5555 5554 5553 5552 5551 5550 5550 5549 5549 5548 5548 5547 5547 5546 5546 5546 5546 5546 5546 5546 5545
5588 5586 5583 5580 5579 5576 5574 5571 5569 5567 5566 5566 5562 5559 5557 5555 5553 5552 5551 5550 5548 5546 5545 5543 5542 5540 5539 5538 5537 5536 5535 5534 5533 5533 5532 5532 5531 5531 5531 5531 5530 5530 5530 5529
5578 5576 5572 5571 5571 5568 5565 5563 5560 5557 5557 5555 5552 5549 5547 5545 5543 5541 5540 5538 5536 5535 5533 5531 5529 5528 5526 5525 5523 5522 5520 5519 5518 5517 5517 5516 5516 5515 5515 5515 5515 5514 5513 5513
5568 5566 5562 5565 5562 5558 5555 5553 5550 5548 5546 5544 5541 5539 5537 5534 5532 5530 5529 5527 5525 5523 5521 5519 5517 5515 5513 5511 5510 5508 5507 5505 5504 5502 5501 5501 5500 5500 5499 5499 5498 5498 5497 5496
5558 5554 5553 5554 5552 5548 5545 5543 5541 5538 5535 5533 5531 5528 5526 5524 5521 5519 5517 5515 5513 5511 5509 5506 5504 5502 5500 5498 5497 5495 5493 5491 5489 5487 5486 5485 5485 5484 5483 5482 5482 5481 5480 5479
5549 5545 5543 5545 5542 5537 5535 5532 5531 5527 5525 5522 5519 5517 5516 5513 5510 5508 5505 5503 5501 5498 5496 5494 5491 5489 5487 5485 5483 5481 5479 5477 5475 5473 5471 5470 5469 5468 5467 5466 5465 5464 5463 5462
5539 5535 5534 5534 5530 5527 5525 5523 5520 5516 5513 5511 5508 5506 5504 5501 5498 5496 5493 5491 5488 5486 5483 5481 5478 5476 5474 5472 5469 5467 5465 5463 5461 5459 5457 5455 5454 5452 5451 5450 5448 5447 5447 5446
5530 5526 5527 5523 5519 5517 5514 5510 5508 5505 5502 5499 5497 5494 5491 5488 5486 5483 5481 5478 5476 5473 5470 5468 5465 5463 5460 5458 5456 5453 5451 5448 5446 5444 5442 5440 5438 5436 5434 5433 5431 5430 5429 5428
5521 5520 5516 5512 5508 5505 5502 5499 5496 5493 5491 5488 5485 5482 5479 5477 5474 5471 5468 5466 5463 5460 5457 5454 5451 5449 5447 5444 5441 5439 5436 5434 5431 5429 5426 5424 5422 5420 5418 5416 5414 5413 5412 5411
5510 5508 5504 5500 5497 5493 5491 5488 5484 5482 5479 5476 5473 5470 5467 5464 5461 5459 5456 5453 5450 5447 5444 5441 5438 5435 5433 5430 5427 5424 5422 5419 5416 5414 5411 5409 5406 5404 5401 5399 5398 5396 5395 5395
5499 5497 5493 5489 5485 5482 5479 5476 5473 5470 5467 5463 5460 5458 5455 5452 5449 5446 5443 5440 5437 5434 5431 5428 5425 5422 5419 5415 5412 5409 5407 5404 5401 5398 5396 5393 5390 5388 5386 5384 5382 5381 5379 5378
5488 5485 5482 5478 5474 5471 5467 5464 5461 5458 5455 5451 5448 5445 5442 5439 5436 5432 5429 5426 5423 5420 5417 5414 5411 5408 5404 5401 5398 5395 5392 5389 5386 5383 5380 5377 5375 5372 5369 5367 5366 5364 5363 5362
5477 5473 5470 5467 5463 5460 5456 5453 5449 5446 5442 5439 5436 5432 5429 5425 5422 5419 5416 5413 5409 5406 5403 5400 5397 5393 5390 5387 5383 5380 5377 5374 5371 5368 5365 5362 5359 5356 5354 5352 5349 5348 5347 5345
5466 5462 5459 5456 5452 5449 5445 5441 5438 5434 5430 5427 5423 5420 5416 5412 5409 5405 5402 5399 5396 5392 5389 5386 5383 5379 5376 5372 5369 5365 5362 5358 5355 5352 5349 5346 5343 5340 5338 5336 5334 5332 5331 5330
5455 5451 5448 5445 5441 5438 5434 5430 5427 5423 5419 5415 5411 5407 5403 5399 5396 5392 5388 5385 5381 5378 5375 5372 5368 5365 5361 5357 5354 5350 5347 5343 5340 5337 5333 5330 5327 5324 5322 5320 5318 5316 5315 5314
5444 5440 5437 5434 5430 5426 5423 5419 5415 5411 5407 5402 5398 5394 5390 5386 5382 5379 5375 5371 5367 5364 5360 5357 5354 5350 5346 5343 5339 5335 5331 5328 5324 5321 5318 5315 5311 5309 5306 5304 5302 5301 5300 5299
5433 5430 5426 5423 5419 5415 5411 5407 5403 5399 5394 5390 5386 5382 5377 5373 5369 5365 5361 5357 5353 5350 5346 5343 5339 5335 5331 5327 5324 5320 5316 5312 5309 5305 5302 5299 5296 5293 5291 5289 5287 5285 5284 5283
5422 5419 5415 5411 5407 5403 5399 5395 5391 5386 5382 5377 5373 5369 5365 5360 5356 5352 5348 5344 5340 5336 5332 5328 5324 5320 5316 5312 5308 5304 5301 5297 5293 5290 5286 5283 5281 5278 5276 5274 5272 5271 5269 5268
5411 5407 5403 5399 5395 5391 5387 5383 5378 5374 5369 5365 5360 5356 5352 5347 5343 5339 5334 5330 5326 5322 5318 5313 5309 5305 5301 5297 5293 5289 5285 5282 5278 5275 5271 5268 5265 5263 5261 5259 5258 5256 5255 5254
5400 5396 5392 5388 5383 5379 5375 5370 5366 5361 5357 5352 5348 5344 5339 5335 5330 5325 5321 5316 5312 5308 5303 5299 5295 5290 5286 5282 5278 5274 5271 5267 5263 5260 5257 5254 5251 5249 5247 5245 5244 5243 5241 5240
5389 5385 5380 5376 5372 5367 5363 5358 5354 5349 5344 5340 5336 5331 5326 5321 5317 5312 5307 5303 5298 5293 5289 5284 5280 5276 5271 5267 5264 5260 5256 5253 5249 5246 5243 5240 5237 5235 5233 5231 5230 5229 5228 5227
5378 5374 5369 5365 5361 5356 5351 5347 5342 5337 5332 5328 5323 5318 5313 5308 5303 5298 5293 5289 5284 5279 5275 5270 5266 5262 5257 5253 5250 5246 5242 5239 5236 5232 5229 5226 5224 5222 5220 5218 5217 5216 5215 5214
5367 5363 5359 5354 5350 5345 5340 5335 5330 5326 5321 5316 5311 5306 5301 5296 5291 5286 5281 5276 5271 5266 5262 5257 5253 5248 5244 5240 5236 5233 5229 5226 5222 5219 5216 5214 5211 5209 5208 5206 5205 5204 5203 5202
5357 5352 5348 5343 5339 5334 5329 5324 5319 5314 5309 5303 5298 5293 5288 5283 5278 5273 5268 5263 5258 5253 5249 5244 5240 5235 5231 5227 5223 5220 5216 5213 5209 5206 5204 5201 5199 5197 5196 5194 5193 5192 5191 5190
5346 5341 5337 5332 5328 5323 5318 5312 5307 5302 5297 5292 5286 5281 5276 5271 5266 5261 5256 5251 5246 5241 5237 5232 5228 5223 5219 5215 5211 5207 5204 5200 5197 5194 5191 5189 5187 5185 5184 5182 5181 5180 5179 5178
5334 5330 5325 5321 5316 5311 5306 5301 5295 5290 5285 5280 5275 5269 5264 5259 5254 5249 5244 5239 5234 5230 5225 5221 5216 5212 5207 5203 5199 5195 5192 5189 5185 5183 5180 5177 5175 5173 5172 5170 5169 5168 5167 5166
5322 5318 5313 5309 5304 5299 5294 5288 5283 5278 5273 5268 5263 5258 5253 5248 5242 5237 5233 5228 5223 5219 5214 5210 5205 5201 5196 5192 5188 5184 5181 5178 5175 5172 5169 5166 5164 5162 5160 5159 5158 5157 5155 5154